This is the latest recevied weather packets stored in our database for station/object KC1OEK-13. If no packets are shown the sender has not sent any weather packets the latest 10 day(s).
| Time | Temp. | Humidity | Pressure | Rain* | Wind** | Luminosity | Snow |
|---|---|---|---|---|---|---|---|
| 1788025767 | 25.56° C | 47% | 1025.4 hPa | 0 mm | - | 658 W/m² | - |
| 1788025462 | 26.67° C | 47% | 1025.3 hPa | 0 mm | - | 661 W/m² | - |
| 1788025158 | 25.56° C | 46% | 1025.4 hPa | 0 mm | - | 661 W/m² | - |
| 1788024858 | 25.56° C | 45% | 1025.2 hPa | 0 mm | - | 660 W/m² | - |
| 1788024554 | 25° C | 48% | 1025.3 hPa | 0 mm | - | 672 W/m² | - |
| 1788024253 | 23.89° C | 46% | 1025.4 hPa | 0 mm | - | 684 W/m² | - |
| 1788023948 | 24.44° C | 45% | 1025.5 hPa | 0 mm | - | 677 W/m² | - |
| 1788023644 | 23.33° C | 48% | 1025.3 hPa | 0 mm | - | 687 W/m² | - |
| 1788023340 | 23.33° C | 48% | 1025.6 hPa | 0 mm | - | 690 W/m² | - |
| 1788023034 | 25° C | 46% | 1025.6 hPa | 0 mm | - | 688 W/m² | - |
| 1788022731 | 24.44° C | 47% | 1025.6 hPa | 0 mm | - | 692 W/m² | - |
| 1788022430 | 23.33° C | 47% | 1025.6 hPa | 0 mm | - | 696 W/m² | - |
| 1788022125 | 23.89° C | 50% | 1025.5 hPa | 0 mm | - | 697 W/m² | - |
| 1788021819 | 23.33° C | 47% | 1025.6 hPa | 0 mm | - | 695 W/m² | - |
| 1788021517 | 25° C | 45% | 1025.5 hPa | 0 mm | - | 692 W/m² | - |
| 1788021211 | 24.44° C | 46% | 1025.5 hPa | 0 mm | - | 691 W/m² | - |
| 1788020907 | 23.89° C | 45% | 1025.8 hPa | 0 mm | - | 686 W/m² | - |
| 1788020601 | 23.33° C | 46% | 1025.7 hPa | 0 mm | - | 683 W/m² | - |
| 1788020298 | 23.89° C | 46% | 1025.6 hPa | 0 mm | - | 678 W/m² | - |
| 1788019993 | 23.89° C | 48% | 1026 hPa | 0 mm | - | 677 W/m² | - |
| 1788019693 | 23.89° C | 48% | 1025.9 hPa | 0 mm | - | 677 W/m² | - |
| 1788019392 | 22.78° C | 49% | 1025.7 hPa | 0 mm | - | 673 W/m² | - |
| 1788019090 | 23.89° C | 45% | 1025.8 hPa | 0 mm | - | 668 W/m² | - |
| 1788018790 | 23.33° C | 50% | 1026 hPa | 0 mm | - | 665 W/m² | - |
| 1788018485 | 23.33° C | 49% | 1026 hPa | 0 mm | - | 661 W/m² | - |
* Rain latest hour (hover to see other rain measurements)
** Current wind speed in m/s (hover to see current wind gust speed)